Location: Latimer
(34.1330°N, 82.5927°W)
Time: 23:29:08
(UTC+00:00)

X-37B - Visible Passes

Search period start: 12 August 2022 00:00
Search period end: 22 August 2022 00:00
Orbit: 328 x 343 km, 45.0° (Epoch: 12 August)

Date Brightness Start Highest point End Pass type
(mag) Time Alt. Az. Time Alt. Az. Time Alt. Az.
12 Aug 3.4 09:32:53 10° NNW 09:34:15 13° NNE 09:35:39 10° NE visible
13 Aug 3.0 09:52:46 10° NNW 09:55:03 20° NNE 09:57:18 10° ENE visible
14 Aug 3.5 08:39:11 12° N 08:39:41 13° NNE 08:41:03 10° NE visible
14 Aug 1.5 10:12:52 10° NW 10:15:40 46° NNE 10:18:28 10° ESE visible
15 Aug 2.9 08:59:19 16° NNW 09:00:28 20° NNE 09:02:43 10° ENE visible
16 Aug 1.4 09:19:47 25° NNW 09:21:06 45° NNE 09:23:53 10° ESE visible
17 Aug 0.4 09:40:41 35° W 09:41:32 52° SW 09:44:21 10° SE visible
18 Aug 2.2 10:02:00 16° SW 10:02:00 16° SW 10:03:38 10° S visible
20 Aug 1.1 01:05:22 10° SSW 01:07:53 30° SE 01:09:04 21° E visible
21 Aug 0.4 01:25:27 10° WSW 01:28:15 72° NNW 01:29:43 25° NE visible
